This is the latest recevied weather packets stored in our database for station/object KC3DGM. If no packets are shown the sender has not sent any weather packets the latest 10 day(s).
| Time | Temp. | Humidity | Pressure | Rain* | Wind** | Luminosity | Snow |
|---|---|---|---|---|---|---|---|
| 1777241189 | 18.33° C | 48% | 990.6 hPa | 0 mm | - | 41 W/m² | - |
| 1777240886 | 18.33° C | 49% | 990.7 hPa | 0 mm | - | 42 W/m² | - |
| 1777240584 | 18.33° C | 52% | 990.5 hPa | 0 mm | - | 43 W/m² | - |
| 1777240281 | 18.33° C | 48% | 990.5 hPa | 0 mm | - | 184 W/m² | - |
| 1777239979 | 18.33° C | 53% | 990.5 hPa | 0 mm | - | 128 W/m² | - |
| 1777239676 | 18.33° C | 47% | 990.4 hPa | 0 mm | - | 66 W/m² | - |
| 1777239372 | 18.89° C | 50% | 990.7 hPa | 0 mm | - | 98 W/m² | - |
| 1777239070 | 18.89° C | 51% | 990.4 hPa | 0 mm | - | 157 W/m² | - |
| 1777238767 | 18.33° C | 54% | 990.2 hPa | 0 mm | - | 213 W/m² | - |
| 1777238463 | 18.89° C | 51% | 990.2 hPa | 0 mm | - | 95 W/m² | - |
| 1777238160 | 18.33° C | 55% | 990.2 hPa | 0 mm | - | 112 W/m² | - |
| 1777237857 | 18.89° C | 53% | 990.3 hPa | 0 mm | - | 116 W/m² | - |
| 1777237553 | 18.89° C | 53% | 990.4 hPa | 0 mm | - | 136 W/m² | - |
| 1777237251 | 18.33° C | 51% | 990.3 hPa | 0 mm | - | 198 W/m² | - |
| 1777236948 | 18.33° C | 53% | 990.2 hPa | 0 mm | - | 159 W/m² | - |
| 1777236644 | 17.78° C | 51% | 990.3 hPa | 0 mm | - | 136 W/m² | - |
| 1777236340 | 18.33° C | 56% | 990.3 hPa | 0 mm | - | 134 W/m² | - |
| 1777236036 | 18.33° C | 52% | 990.4 hPa | 0 mm | - | 200 W/m² | - |
| 1777235732 | 17.78° C | 58% | 990.2 hPa | 0 mm | - | 113 W/m² | - |
| 1777235430 | 17.78° C | 57% | 990.4 hPa | 0 mm | - | 69 W/m² | - |
| 1777235126 | 17.78° C | 55% | 990.3 hPa | 0 mm | - | 67 W/m² | - |
| 1777234821 | 17.78° C | 56% | 990.2 hPa | 0 mm | - | 92 W/m² | - |
| 1777234518 | 18.33° C | 55% | 990 hPa | 0 mm | - | 61 W/m² | - |
| 1777234217 | 18.33° C | 55% | 990.2 hPa | 0 mm | - | 62 W/m² | - |
| 1777233914 | 17.78° C | 57% | 990.3 hPa | 0 mm | - | 67 W/m² | - |
* Rain latest hour (hover to see other rain measurements)
** Current wind speed in m/s (hover to see current wind gust speed)